Location: Lane
(33.5226°N, 79.8788°W)
Time: 02:10:27
(UTC+00:00)

Explorer 7 - Pass Details

Date: 04 October 2022
Orbit: 481 x 665 km, 50.3° (Epoch: 01 December)

Event Time Altitude Azimuth Distance (km) Brightness Sun altitude
Rises 14:36:26 0° 228° (SW) 2,962 10.5 37.7°
Reaches altitude 10° 14:38:45 10° 229° (SW) 2,066 9.8 38.1°
Maximum altitude 14:43:34 85° 317° (NW) 671 7.8 38.9°
Drops below altitude 10° 14:48:25 10° 47° (NE) 2,081 9.9 39.6°
Sets 14:50:45 0° 48° (NE) 2,985 10.6 40.0°
